EW0362 Weather Reports


time (UTC)temp
F
wind
direction
speed
knots
gust
knots
rain 1hr
in
rain 24hr
in
rain mn
in
humidity
%
barometer
mb
20260504040206 35 257 0.0 0.0 0.00 0.01 0.00 85 1009.7
20260504035704 35 257 0.0 0.0 0.00 0.01 0.01 84 1009.7
20260504035205 35 257 0.0 0.0 0.00 0.01 0.01 84 1009.7
20260504034705 36 257 0.0 0.0 0.00 0.01 0.01 84 1009.6
20260504033204 36 257 0.0 0.0 0.00 0.01 0.01 82 1009.6
20260504031705 37 257 0.0 0.0 0.00 0.01 0.01 82 1009.5
20260504030704 37 257 0.0 0.0 0.00 0.01 0.01 81 1009.6
20260504030205 37 257 0.0 0.0 0.00 0.01 0.01 80 1009.6
20260504025205 38 257 0.0 0.0 0.00 0.01 0.01 79 1009.6
20260504024204 38 257 0.0 0.0 0.00 0.01 0.01 78 1009.5
20260504023705 38 257 0.0 0.0 0.00 0.01 0.01 78 1009.4
20260504022705 39 257 0.0 0.0 0.00 0.01 0.01 76 1009.5
20260504022206 39 257 0.0 0.0 0.00 0.01 0.01 76 1009.4
20260504014204 42 257 0.0 0.0 0.00 0.01 0.01 69 1009.1
20260504013705 42 257 0.0 0.0 0.00 0.01 0.01 68 1009.1
20260504012706 43 257 0.0 0.0 0.00 0.01 0.01 67 1009.0
20260504011705 43 257 0.0 0.0 0.00 0.01 0.01 65 1009.0
20260504010705 44 257 0.0 0.0 0.00 0.01 0.01 65 1008.8
20260504010204 45 257 0.0 0.0 0.00 0.01 0.01 62 1008.8
20260504005704 45 257 0.0 0.0 0.00 0.01 0.01 62 1008.7
20260504004704 46 257 0.0 0.0 0.00 0.01 0.01 60 1008.6
20260504004205 46 257 0.0 0.0 0.00 0.01 0.01 60 1008.5
20260504003705 47 257 0.0 0.0 0.00 0.01 0.01 59 1008.4
20260504003204 47 257 0.0 0.0 0.00 0.01 0.01 60 1008.4
20260504001705 48 257 0.0 0.0 0.00 0.01 0.01 56 1008.2
20260504001205 49 257 0.0 0.0 0.00 0.01 0.01 53 1008.2
20260504000205 49 257 0.0 0.0 0.00 0.01 0.01 53 1008.1
20260503235205 50 257 0.0 0.0 0.00 0.01 0.01 51 1007.9
20260503234205 50 258 1.7 2.6 0.00 0.01 0.01 50 1007.8
20260503233205 51 277 0.9 2.6 0.00 0.01 0.01 49 1007.7
20260503232205 51 293 0.9 4.3 0.00 0.01 0.01 50 1007.6
20260503231704 51 282 0.9 2.6 0.00 0.01 0.01 48 1007.5
20260503231205 52 264 1.7 7.0 0.00 0.01 0.01 47 1007.5
20260503230204 52 280 1.7 6.1 0.00 0.01 0.01 46 1007.3
20260503225705 52 252 1.7 2.6 0.00 0.01 0.01 46 1007.3
20260503224704 52 285 1.7 7.8 0.00 0.01 0.01 45 1007.3
20260503223706 52 294 1.7 7.8 0.00 0.01 0.01 44 1007.1
20260503221705 53 350 2.6 8.7 0.00 0.01 0.01 44 1006.8
20260503221205 53 274 2.6 6.1 0.00 0.01 0.01 45 1006.8
20260503220705 53 212 1.7 4.3 0.00 0.01 0.01 46 1006.8
20260503220205 53 287 1.7 6.1 0.00 0.01 0.01 45 1006.7
20260503215704 53 268 2.6 7.0 0.00 0.02 0.01 46 1006.7
20260503215205 53 268 2.6 5.2 0.00 0.02 0.01 44 1006.6
20260503214704 53 280 2.6 7.0 0.00 0.02 0.01 44 1006.7
20260503213204 53 265 2.6 4.3 0.00 0.02 0.01 46 1006.5
20260503212704 53 262 2.6 7.8 0.00 0.03 0.01 44 1006.4
20260503205204 53 268 1.7 6.1 0.00 0.04 0.01 44 1006.1
20260503204204 54 309 4.3 8.7 0.00 0.04 0.01 43 1006.0
20260503203705 54 264 2.6 11.3 0.00 0.04 0.01 43 1005.9
20260503203204 54 256 1.7 7.8 0.00 0.04 0.01 43 1005.7
20260503202204 54 290 4.3 10.4 0.00 0.04 0.01 42 1005.6
20260503201704 55 292 2.6 8.7 0.00 0.04 0.01 42 1005.6
20260503201205 55 293 1.7 6.1 0.00 0.04 0.01 44 1005.6
20260503200204 54 277 4.3 8.7 0.00 0.04 0.01 43 1005.6
20260503195705 54 352 1.7 10.4 0.00 0.04 0.01 46 1005.7
20260503195204 54 274 2.6 7.0 0.00 0.04 0.01 46 1005.6
20260503194204 54 296 2.6 5.2 0.00 0.04 0.01 47 1005.6
20260503193705 54 329 3.5 7.8 0.00 0.04 0.01 46 1005.6
20260503192704 54 330 3.5 10.4 0.00 0.04 0.01 47 1005.7
20260503191704 54 324 1.7 7.0 0.00 0.04 0.01 48 1005.8
20260503190704 54 283 1.7 6.1 0.00 0.04 0.01 50 1005.7
20260503190205 54 274 2.6 5.2 0.00 0.04 0.01 49 1005.7
20260503185704 54 293 1.7 7.8 0.00 0.04 0.01 48 1005.7
20260503184705 55 345 4.3 7.8 0.00 0.04 0.01 47 1005.7
20260503184204 55 277 3.5 7.0 0.00 0.04 0.01 50 1005.7
20260503181204 53 285 0.9 7.8 0.00 0.04 0.01 52 1005.8
20260503180204 53 306 4.3 10.4 0.00 0.04 0.01 50 1006.0
20260503175206 53 273 3.5 7.8 0.00 0.04 0.01 52 1006.0
20260503174704 53 268 5.2 12.2 0.00 0.04 0.01 53 1005.9
20260503174204 52 22 1.7 7.0 0.00 0.04 0.01 55 1005.9
20260503173705 52 268 6.1 11.3 0.00 0.04 0.01 54 1005.9
20260503172705 52 355 4.3 10.4 0.00 0.04 0.01 52 1006.0
20260503172204 52 271 3.5 10.4 0.00 0.04 0.01 57 1005.9
20260503171704 52 4 5.2 12.2 0.00 0.04 0.01 56 1005.8
20260503170205 52 322 5.2 10.4 0.00 0.04 0.01 57 1005.8
20260503160205 50 301 4.3 8.7 0.00 0.04 0.01 65 1006.0
20260503120204 43 0 0.9 2.6 0.00 0.06 0.00 89 1007.0
20260503110204 42 295 0.9 2.6 0.00 0.10 0.00 90 1006.9
20260503090204 42 307 0.0 2.6 0.00 0.11 0.00 92 1007.3
20260503080204 42 58 0.0 1.7 0.00 0.11 0.00 93 1008.0
20260503072204 43 51 0.0 0.0 0.00 0.11 0.00 94 1008.3
20260503071704 43 51 0.0 0.0 0.00 0.11 0.00 94 1008.4
20260503070704 43 51 0.0 0.0 0.00 0.11 0.00 95 1008.4
20260503060203 43 51 0.0 0.0 0.00 0.11 0.00 94 1009.4
20260503054204 44 51 0.0 0.0 0.00 0.11 0.00 93 1009.2
20260503053703 44 51 0.0 0.0 0.00 0.11 0.00 93 1009.4
20260503052703 44 51 0.0 0.0 0.00 0.11 0.00 93 1009.6
20260503052204 44 51 0.0 0.0 0.00 0.11 0.00 93 1009.5
20260503044703 45 330 0.0 0.0 0.00 0.11 0.00 93 1010.0
20260503044204 45 330 0.0 0.9 0.00 0.11 0.00 93 1010.2
20260503043204 46 43 0.0 2.6 0.00 0.11 0.00 93 1010.2
20260503042704 46 11 1.7 2.6 0.00 0.11 0.00 95 1010.2
20260503042204 46 17 0.9 2.6 0.00 0.11 0.00 95 1010.3
20260503040704 46 350 0.0 0.0 0.00 0.11 0.00 95 1010.3